| time (UTC) | temp F | wind direction | speed MPH | gust MPH | rain 1hr in | rain 24hr in | rain mn in | humidity % | barometer mb |
| 20260508172003 | 59 | 93 | 5.0 | 10.0 | 0.00 | 0.00 | 0.00 | 24 | 1023.1 |
| 20260508171503 | 59 | 104 | 5.0 | 10.0 | 0.00 | 0.00 | 0.00 | 24 | 1023.2 |
| 20260508171003 | 60 | 120 | 4.0 | 9.0 | 0.00 | 0.00 | 0.00 | 25 | 1023.1 |
| 20260508170503 | 60 | 119 | 4.0 | 10.0 | 0.00 | 0.00 | 0.00 | 24 | 1023.0 |
| 20260508170003 | 60 | 111 | 4.0 | 10.0 | 0.00 | 0.00 | 0.00 | 24 | 1023.0 |
| 20260508165503 | 60 | 118 | 4.0 | 9.0 | 0.00 | 0.00 | 0.00 | 24 | 1023.1 |
| 20260508165214 | 60 | 121 | 4.0 | 9.0 | 0.00 | 0.00 | 0.00 | 24 | 1023.1 |
| 20260508164503 | 60 | 120 | 5.0 | 9.0 | 0.00 | 0.00 | 0.00 | 23 | 1022.9 |
| 20260508164003 | 60 | 124 | 4.0 | 10.0 | 0.00 | 0.00 | 0.00 | 24 | 1022.9 |
| 20260508163503 | 60 | 118 | 5.0 | 11.0 | 0.00 | 0.00 | 0.00 | 24 | 1023.0 |
| 20260508163003 | 61 | 112 | 5.0 | 11.0 | 0.00 | 0.00 | 0.00 | 24 | 1022.9 |
| 20260508162504 | 61 | 100 | 4.0 | 11.0 | 0.00 | 0.00 | 0.00 | 23 | 1022.9 |
| 20260508162003 | 61 | 109 | 4.0 | 11.0 | 0.00 | 0.00 | 0.00 | 24 | 1022.8 |
| 20260508161504 | 61 | 105 | 5.0 | 12.0 | 0.00 | 0.00 | 0.00 | 24 | 1023.0 |
| 20260508161003 | 61 | 95 | 5.0 | 12.0 | 0.00 | 0.00 | 0.00 | 24 | 1022.8 |
| 20260508160503 | 61 | 101 | 5.0 | 14.0 | 0.00 | 0.00 | 0.00 | 24 | 1022.8 |
| 20260508160003 | 61 | 106 | 4.0 | 14.0 | 0.00 | 0.00 | 0.00 | 23 | 1022.8 |
| 20260508155503 | 62 | 113 | 4.0 | 8.0 | 0.00 | 0.00 | 0.00 | 25 | 1022.9 |
| 20260508155003 | 62 | 132 | 4.0 | 11.0 | 0.00 | 0.00 | 0.00 | 24 | 1022.8 |
| 20260508154503 | 62 | 144 | 5.0 | 11.0 | 0.00 | 0.00 | 0.00 | 23 | 1023.0 |
| 20260508154003 | 62 | 174 | 5.0 | 11.0 | 0.00 | 0.00 | 0.00 | 25 | 1022.7 |
| 20260508153503 | 62 | 179 | 4.0 | 11.0 | 0.00 | 0.00 | 0.00 | 23 | 1022.9 |
| 20260508153003 | 62 | 183 | 4.0 | 7.0 | 0.00 | 0.00 | 0.00 | 24 | 1023.0 |
| 20260508152503 | 62 | 180 | 4.0 | 9.0 | 0.00 | 0.00 | 0.00 | 24 | 1022.8 |
| 20260508152003 | 61 | 179 | 5.0 | 9.0 | 0.00 | 0.00 | 0.00 | 24 | 1022.9 |
| 20260508151714 | 61 | 185 | 5.0 | 9.0 | 0.00 | 0.00 | 0.00 | 24 | 1023.0 |
| 20260508151003 | 61 | 192 | 4.0 | 10.0 | 0.00 | 0.00 | 0.00 | 25 | 1023.1 |
| 20260508150503 | 61 | 176 | 5.0 | 10.0 | 0.00 | 0.00 | 0.00 | 24 | 1023.0 |
| 20260508150004 | 61 | 168 | 6.0 | 12.0 | 0.00 | 0.00 | 0.00 | 23 | 1023.0 |
| 20260508145503 | 62 | 162 | 4.0 | 12.0 | 0.00 | 0.00 | 0.00 | 24 | 1023.1 |
| 20260508145003 | 62 | 170 | 3.0 | 8.0 | 0.00 | 0.00 | 0.00 | 24 | 1022.9 |
| 20260508144503 | 62 | 177 | 3.0 | 8.0 | 0.00 | 0.00 | 0.00 | 24 | 1023.1 |
| 20260508144003 | 62 | 166 | 5.0 | 12.0 | 0.00 | 0.00 | 0.00 | 24 | 1023.3 |
| 20260508143503 | 62 | 158 | 5.0 | 12.0 | 0.00 | 0.00 | 0.00 | 23 | 1023.2 |
| 20260508143003 | 62 | 170 | 4.0 | 8.0 | 0.00 | 0.00 | 0.00 | 22 | 1023.3 |
| 20260508142503 | 62 | 172 | 3.0 | 8.0 | 0.00 | 0.00 | 0.00 | 23 | 1023.4 |
| 20260508142213 | 62 | 155 | 3.0 | 9.0 | 0.00 | 0.00 | 0.00 | 23 | 1023.4 |
| 20260508141503 | 61 | 64 | 4.0 | 12.0 | 0.00 | 0.00 | 0.00 | 23 | 1023.2 |
| 20260508141003 | 62 | 106 | 4.0 | 12.0 | 0.00 | 0.00 | 0.00 | 24 | 1023.4 |
| 20260508140714 | 62 | 126 | 4.0 | 8.0 | 0.00 | 0.00 | 0.00 | 23 | 1023.3 |
| 20260508140213 | 62 | 175 | 3.0 | 7.0 | 0.00 | 0.00 | 0.00 | 23 | 1023.2 |
| 20260508135503 | 62 | 153 | 4.0 | 11.0 | 0.00 | 0.00 | 0.00 | 23 | 1023.2 |
| 20260508135003 | 62 | 158 | 4.0 | 11.0 | 0.00 | 0.00 | 0.00 | 23 | 1023.3 |
| 20260508134503 | 61 | 144 | 4.0 | 12.0 | 0.00 | 0.00 | 0.00 | 23 | 1023.4 |
| 20260508134212 | 61 | 154 | 5.0 | 12.0 | 0.00 | 0.00 | 0.00 | 22 | 1023.4 |
| 20260508133503 | 61 | 139 | 3.0 | 10.0 | 0.00 | 0.00 | 0.00 | 22 | 1023.5 |
| 20260508133003 | 61 | 124 | 4.0 | 13.0 | 0.00 | 0.00 | 0.00 | 22 | 1023.6 |
| 20260508132503 | 60 | 141 | 4.0 | 13.0 | 0.00 | 0.00 | 0.00 | 23 | 1023.6 |
| 20260508132003 | 61 | 175 | 4.0 | 8.0 | 0.00 | 0.00 | 0.00 | 23 | 1023.6 |
| 20260508131503 | 61 | 157 | 4.0 | 9.0 | 0.00 | 0.00 | 0.00 | 22 | 1023.6 |
| 20260508131212 | 61 | 118 | 4.0 | 19.0 | 0.00 | 0.00 | 0.00 | 23 | 1023.7 |
| 20260508130503 | 60 | 58 | 5.0 | 19.0 | 0.00 | 0.00 | 0.00 | 24 | 1023.6 |
| 20260508130003 | 60 | 47 | 4.0 | 9.0 | 0.00 | 0.00 | 0.00 | 23 | 1023.8 |
| 20260508125503 | 61 | 60 | 4.0 | 9.0 | 0.00 | 0.00 | 0.00 | 23 | 1023.8 |
| 20260508125214 | 61 | 103 | 4.0 | 11.0 | 0.00 | 0.00 | 0.00 | 24 | 1023.9 |
| 20260508124713 | 61 | 145 | 3.0 | 11.0 | 0.00 | 0.00 | 0.00 | 24 | 1023.9 |
| 20260508124003 | 61 | 173 | 3.0 | 7.0 | 0.00 | 0.00 | 0.00 | 22 | 1023.6 |
| 20260508123503 | 61 | 161 | 4.0 | 11.0 | 0.00 | 0.00 | 0.00 | 22 | 1023.9 |
| 20260508123003 | 60 | 140 | 5.0 | 11.0 | 0.00 | 0.00 | 0.00 | 23 | 1023.7 |
| 20260508122503 | 61 | 131 | 4.0 | 11.0 | 0.00 | 0.00 | 0.00 | 24 | 1023.8 |
| 20260508122003 | 61 | 185 | 4.0 | 9.0 | 0.00 | 0.00 | 0.00 | 23 | 1023.8 |
| 20260508121503 | 60 | 168 | 5.0 | 12.0 | 0.00 | 0.00 | 0.00 | 25 | 1023.8 |
| 20260508121003 | 60 | 126 | 4.0 | 12.0 | 0.00 | 0.00 | 0.00 | 24 | 1023.9 |
| 20260508120503 | 60 | 131 | 3.0 | 9.0 | 0.00 | 0.00 | 0.00 | 24 | 1023.8 |
| 20260508120003 | 60 | 173 | 5.0 | 12.0 | 0.00 | 0.00 | 0.00 | 24 | 1024.0 |
| 20260508115503 | 59 | 161 | 5.0 | 12.0 | 0.00 | 0.00 | 0.00 | 23 | 1023.9 |
| 20260508115003 | 60 | 114 | 3.0 | 9.0 | 0.00 | 0.00 | 0.00 | 24 | 1023.9 |
| 20260508114713 | 59 | 86 | 4.0 | 14.0 | 0.00 | 0.00 | 0.00 | 25 | 1023.8 |
| 20260508114003 | 59 | 100 | 4.0 | 14.0 | 0.00 | 0.00 | 0.00 | 25 | 1024.0 |
| 20260508113503 | 60 | 104 | 4.0 | 13.0 | 0.00 | 0.00 | 0.00 | 25 | 1024.0 |
| 20260508113004 | 60 | 79 | 4.0 | 13.0 | 0.00 | 0.00 | 0.00 | 24 | 1023.9 |
| 20260508112503 | 59 | 39 | 4.0 | 15.0 | 0.00 | 0.00 | 0.00 | 26 | 1024.1 |
| 20260508112003 | 59 | 62 | 5.0 | 15.0 | 0.00 | 0.00 | 0.00 | 26 | 1023.9 |
| 20260508111713 | 59 | 94 | 6.0 | 15.0 | 0.00 | 0.00 | 0.00 | 25 | 1023.9 |
| 20260508111003 | 59 | 137 | 5.0 | 13.0 | 0.00 | 0.00 | 0.00 | 26 | 1023.9 |
| 20260508110503 | 60 | 142 | 4.0 | 10.0 | 0.00 | 0.00 | 0.00 | 25 | 1024.0 |
| 20260508110003 | 60 | 166 | 5.0 | 10.0 | 0.00 | 0.00 | 0.00 | 26 | 1023.8 |
| 20260508105712 | 59 | 182 | 5.0 | 10.0 | 0.00 | 0.00 | 0.00 | 26 | 1024.0 |
| 20260508105003 | 59 | 83 | 4.0 | 9.0 | 0.00 | 0.00 | 0.00 | 27 | 1023.8 |
| 20260508104503 | 58 | 70 | 4.0 | 13.0 | 0.00 | 0.00 | 0.00 | 28 | 1024.0 |
| 20260508104003 | 58 | 83 | 4.0 | 13.0 | 0.00 | 0.00 | 0.00 | 26 | 1024.0 |
| 20260508103503 | 58 | 98 | 4.0 | 10.0 | 0.00 | 0.00 | 0.00 | 27 | 1023.9 |
| 20260508103003 | 59 | 117 | 4.0 | 10.0 | 0.00 | 0.00 | 0.00 | 26 | 1024.1 |
| 20260508102503 | 59 | 172 | 4.0 | 13.0 | 0.00 | 0.00 | 0.00 | 26 | 1024.0 |
| 20260508102003 | 59 | 160 | 5.0 | 13.0 | 0.00 | 0.00 | 0.00 | 26 | 1023.7 |
| 20260508101503 | 58 | 138 | 5.0 | 11.0 | 0.00 | 0.00 | 0.00 | 27 | 1023.9 |
| 20260508101003 | 59 | 156 | 4.0 | 12.0 | 0.00 | 0.00 | 0.00 | 26 | 1023.9 |
| 20260508100714 | 58 | 148 | 4.0 | 12.0 | 0.00 | 0.00 | 0.00 | 27 | 1023.9 |
| 20260508100003 | 58 | 110 | 4.0 | 11.0 | 0.00 | 0.00 | 0.00 | 28 | 1024.0 |
| 20260508095503 | 58 | 109 | 5.0 | 11.0 | 0.00 | 0.00 | 0.00 | 27 | 1023.9 |
| 20260508095003 | 58 | 106 | 5.0 | 15.0 | 0.00 | 0.00 | 0.00 | 29 | 1024.0 |
| 20260508094503 | 57 | 100 | 5.0 | 15.0 | 0.00 | 0.00 | 0.00 | 28 | 1024.1 |
| 20260508094003 | 57 | 138 | 5.0 | 11.0 | 0.00 | 0.00 | 0.00 | 28 | 1024.0 |
| 20260508093503 | 57 | 132 | 4.0 | 12.0 | 0.00 | 0.00 | 0.00 | 28 | 1024.0 |
| 20260508093004 | 57 | 119 | 4.0 | 12.0 | 0.00 | 0.00 | 0.00 | 29 | 1023.9 |
| 20260508092503 | 57 | 137 | 5.0 | 13.0 | 0.00 | 0.00 | 0.00 | 29 | 1024.1 |
| 20260508092003 | 57 | 117 | 5.0 | 13.0 | 0.00 | 0.00 | 0.00 | 30 | 1024.1 |
| 20260508091503 | 57 | 115 | 5.0 | 11.0 | 0.00 | 0.00 | 0.00 | 31 | 1023.9 |
| 20260508091003 | 57 | 159 | 4.0 | 12.0 | 0.00 | 0.00 | 0.00 | 31 | 1023.9 |
| 20260508090503 | 56 | 173 | 5.0 | 12.0 | 0.00 | 0.00 | 0.00 | 31 | 1024.0 |
| 20260508090213 | 56 | 170 | 5.0 | 12.0 | 0.00 | 0.00 | 0.00 | 31 | 1024.1 |
| 20260508085503 | 56 | 172 | 5.0 | 10.0 | 0.00 | 0.00 | 0.00 | 32 | 1023.9 |
| 20260508085003 | 56 | 153 | 6.0 | 12.0 | 0.00 | 0.00 | 0.00 | 32 | 1024.0 |
| 20260508084503 | 56 | 136 | 6.0 | 12.0 | 0.00 | 0.00 | 0.00 | 33 | 1024.0 |
| 20260508084003 | 55 | 112 | 4.0 | 12.0 | 0.00 | 0.00 | 0.00 | 36 | 1024.1 |
| 20260508083503 | 55 | 83 | 4.0 | 9.0 | 0.00 | 0.00 | 0.00 | 36 | 1024.1 |
| 20260508083212 | 55 | 110 | 4.0 | 10.0 | 0.00 | 0.00 | 0.00 | 38 | 1024.0 |
| 20260508082713 | 55 | 136 | 6.0 | 12.0 | 0.00 | 0.00 | 0.00 | 38 | 1023.9 |
| 20260508082003 | 54 | 134 | 5.0 | 11.0 | 0.00 | 0.00 | 0.00 | 38 | 1024.2 |
| 20260508081713 | 54 | 134 | 4.0 | 9.0 | 0.00 | 0.00 | 0.00 | 39 | 1024.0 |
| 20260508081212 | 54 | 101 | 4.0 | 11.0 | 0.00 | 0.00 | 0.00 | 40 | 1024.1 |
| 20260508080713 | 53 | 88 | 5.0 | 11.0 | 0.00 | 0.00 | 0.00 | 41 | 1024.0 |
| 20260508080003 | 53 | 128 | 4.0 | 10.0 | 0.00 | 0.00 | 0.00 | 41 | 1024.1 |
| 20260508075713 | 53 | 113 | 4.0 | 9.0 | 0.00 | 0.00 | 0.00 | 41 | 1024.0 |
| 20260508075212 | 53 | 116 | 4.0 | 9.0 | 0.00 | 0.00 | 0.00 | 41 | 1024.2 |
| 20260508074503 | 53 | 105 | 5.0 | 11.0 | 0.00 | 0.00 | 0.00 | 43 | 1024.1 |
| 20260508074003 | 52 | 82 | 6.0 | 13.0 | 0.00 | 0.00 | 0.00 | 45 | 1023.9 |
| 20260508073713 | 52 | 91 | 6.0 | 13.0 | 0.00 | 0.00 | 0.00 | 45 | 1024.0 |
| 20260508073214 | 52 | 105 | 6.0 | 17.0 | 0.00 | 0.00 | 0.00 | 44 | 1024.0 |
| 20260508072503 | 51 | 116 | 6.0 | 17.0 | 0.00 | 0.00 | 0.00 | 45 | 1024.1 |
| 20260508072003 | 52 | 116 | 4.0 | 11.0 | 0.00 | 0.00 | 0.00 | 45 | 1024.0 |
| 20260508071503 | 51 | 119 | 5.0 | 11.0 | 0.00 | 0.00 | 0.00 | 47 | 1024.0 |
| 20260508071214 | 51 | 114 | 6.0 | 14.0 | 0.00 | 0.00 | 0.00 | 47 | 1023.9 |
| 20260508070503 | 51 | 121 | 6.0 | 14.0 | 0.00 | 0.00 | 0.00 | 49 | 1023.8 |
| 20260508070003 | 51 | 124 | 5.0 | 11.0 | 0.00 | 0.00 | 0.00 | 49 | 1023.9 |
| 20260508065713 | 51 | 129 | 4.0 | 10.0 | 0.00 | 0.00 | 0.00 | 48 | 1023.7 |
| 20260508065003 | 50 | 129 | 4.0 | 8.0 | 0.00 | 0.00 | 0.00 | 49 | 1023.6 |
| 20260508064503 | 50 | 117 | 4.0 | 7.0 | 0.00 | 0.00 | 0.00 | 51 | 1023.5 |
| 20260508064003 | 49 | 117 | 4.0 | 11.0 | 0.00 | 0.00 | 0.00 | 50 | 1023.6 |
| 20260508063503 | 49 | 105 | 5.0 | 11.0 | 0.00 | 0.00 | 0.00 | 51 | 1023.5 |
| 20260508063003 | 49 | 104 | 5.0 | 11.0 | 0.00 | 0.00 | 0.00 | 51 | 1023.6 |
| 20260508062504 | 48 | 116 | 5.0 | 11.0 | 0.00 | 0.00 | 0.00 | 51 | 1023.5 |
| 20260508062003 | 48 | 112 | 4.0 | 9.0 | 0.00 | 0.00 | 0.00 | 51 | 1023.2 |
| 20260508061503 | 49 | 119 | 3.0 | 9.0 | 0.00 | 0.00 | 0.00 | 51 | 1023.2 |
| 20260508061003 | 48 | 111 | 3.0 | 9.0 | 0.00 | 0.00 | 0.00 | 51 | 1023.2 |
| 20260508060503 | 48 | 105 | 3.0 | 6.0 | 0.00 | 0.00 | 0.00 | 51 | 1023.0 |
| 20260508060003 | 48 | 117 | 3.0 | 8.0 | 0.00 | 0.00 | 0.00 | 53 | 1023.0 |
| 20260508055713 | 47 | 108 | 3.0 | 8.0 | 0.00 | 0.00 | 0.00 | 53 | 1023.1 |
| 20260508055214 | 47 | 99 | 3.0 | 7.0 | 0.00 | 0.00 | 0.00 | 54 | 1023.0 |
| 20260508054503 | 47 | 86 | 3.0 | 7.0 | 0.00 | 0.00 | 0.00 | 55 | 1023.0 |
| 20260508054213 | 46 | 89 | 3.0 | 6.0 | 0.00 | 0.00 | 0.00 | 56 | 1023.0 |
| 20260508053503 | 46 | 87 | 3.0 | 6.0 | 0.00 | 0.00 | 0.00 | 57 | 1022.9 |
| 20260508053003 | 45 | 88 | 3.0 | 4.0 | 0.00 | 0.00 | 0.00 | 59 | 1022.9 |
| 20260508052503 | 44 | 89 | 3.0 | 4.0 | 0.00 | 0.00 | 0.00 | 60 | 1022.9 |
| 20260508052003 | 43 | 88 | 2.0 | 5.0 | 0.00 | 0.00 | 0.00 | 61 | 1022.9 |
| 20260508051503 | 42 | 76 | 2.0 | 5.0 | 0.00 | 0.00 | 0.00 | 63 | 1022.9 |
| 20260508051003 | 41 | 60 | 1.0 | 4.0 | 0.00 | 0.00 | 0.00 | 65 | 1022.8 |
| 20260508050503 | 40 | 67 | 1.0 | 3.0 | 0.00 | 0.00 | 0.00 | 68 | 1022.7 |
| 20260508050004 | 40 | 65 | 1.0 | 3.0 | 0.00 | 0.00 | 0.00 | 68 | 1022.6 |
| 20260508045503 | 38 | 45 | 1.0 | 2.0 | 0.00 | 0.00 | 0.00 | 70 | 1022.7 |
| 20260508045003 | 37 | 39 | 1.0 | 2.0 | 0.00 | 0.00 | 0.00 | 72 | 1022.5 |
| 20260508044504 | 36 | 36 | 1.0 | 3.0 | 0.00 | 0.00 | 0.00 | 74 | 1022.7 |
| 20260508044213 | 36 | 32 | 1.0 | 3.0 | 0.00 | 0.00 | 0.00 | 75 | 1022.4 |
| 20260508043503 | 34 | 30 | 1.0 | 2.0 | 0.00 | 0.00 | 0.00 | 77 | 1022.4 |
| 20260508043003 | 33 | 27 | 1.0 | 2.0 | 0.00 | 0.00 | 0.00 | 78 | 1022.5 |
| 20260508042503 | 33 | 28 | 1.0 | 2.0 | 0.00 | 0.00 | 0.00 | 79 | 1022.4 |
| 20260508042003 | 32 | 31 | 1.0 | 3.0 | 0.00 | 0.00 | 0.00 | 80 | 1022.4 |
| 20260508041504 | 32 | 35 | 1.0 | 3.0 | 0.00 | 0.00 | 0.00 | 81 | 1022.4 |
| 20260508041003 | 31 | 37 | 2.0 | 3.0 | 0.00 | 0.00 | 0.00 | 80 | 1022.5 |
| 20260508040503 | 31 | 34 | 2.0 | 3.0 | 0.00 | 0.00 | 0.00 | 80 | 1022.1 |
| 20260508040003 | 31 | 32 | 2.0 | 3.0 | 0.00 | 0.00 | 0.00 | 80 | 1022.4 |
| 20260508035504 | 31 | 29 | 2.0 | 3.0 | 0.00 | 0.00 | 0.00 | 81 | 1022.2 |
| 20260508035213 | 31 | 27 | 2.0 | 3.0 | 0.00 | 0.00 | 0.00 | 80 | 1022.2 |
| 20260508034503 | 31 | 26 | 2.0 | 3.0 | 0.00 | 0.00 | 0.00 | 80 | 1022.3 |
| 20260508034003 | 31 | 21 | 2.0 | 3.0 | 0.00 | 0.00 | 0.00 | 81 | 1022.0 |
| 20260508033503 | 31 | 26 | 1.0 | 3.0 | 0.00 | 0.00 | 0.00 | 82 | 1022.1 |
| 20260508033003 | 30 | 43 | 1.0 | 2.0 | 0.00 | 0.00 | 0.00 | 84 | 1022.2 |
| 20260508032503 | 29 | 56 | 0.0 | 2.0 | 0.00 | 0.00 | 0.00 | 90 | 1022.1 |
| 20260508032003 | 29 | 52 | 1.0 | 3.0 | 0.00 | 0.00 | 0.00 | 85 | 1022.1 |
| 20260508031714 | 29 | 47 | 2.0 | 3.0 | 0.00 | 0.00 | 0.00 | 84 | 1021.9 |
| 20260508031003 | 29 | 39 | 2.0 | 3.0 | 0.00 | 0.00 | 0.00 | 83 | 1022.1 |
| 20260508030503 | 29 | 39 | 2.0 | 3.0 | 0.00 | 0.00 | 0.00 | 83 | 1022.0 |
| 20260508030003 | 30 | 32 | 2.0 | 3.0 | 0.00 | 0.00 | 0.00 | 82 | 1022.1 |
| 20260508025504 | 30 | 28 | 2.0 | 3.0 | 0.00 | 0.00 | 0.00 | 82 | 1022.0 |
| 20260508025003 | 30 | 26 | 2.0 | 3.0 | 0.00 | 0.00 | 0.00 | 82 | 1021.9 |
| 20260508024504 | 30 | 29 | 2.0 | 3.0 | 0.00 | 0.00 | 0.00 | 82 | 1021.8 |
| 20260508024214 | 30 | 32 | 1.0 | 3.0 | 0.00 | 0.00 | 0.00 | 83 | 1021.9 |
| 20260508023503 | 30 | 36 | 1.0 | 2.0 | 0.00 | 0.00 | 0.00 | 83 | 1022.0 |
| 20260508023003 | 30 | 37 | 1.0 | 2.0 | 0.00 | 0.00 | 0.00 | 83 | 1021.7 |
| 20260508022503 | 30 | 42 | 1.0 | 2.0 | 0.00 | 0.00 | 0.00 | 81 | 1021.7 |
| 20260508022003 | 30 | 44 | 0.0 | 2.0 | 0.00 | 0.00 | 0.00 | 82 | 1021.8 |
| 20260508021503 | 29 | 28 | 1.0 | 2.0 | 0.00 | 0.00 | 0.00 | 87 | 1021.6 |
| 20260508021003 | 31 | 34 | 1.0 | 3.0 | 0.00 | 0.00 | 0.00 | 84 | 1021.7 |
| 20260508020503 | 30 | 44 | 1.0 | 3.0 | 0.00 | 0.00 | 0.00 | 84 | 1021.8 |
| 20260508020003 | 30 | 36 | 1.0 | 2.0 | 0.00 | 0.00 | 0.00 | 84 | 1021.6 |
| 20260508015503 | 30 | 40 | 1.0 | 2.0 | 0.00 | 0.00 | 0.00 | 83 | 1021.6 |
| 20260508015003 | 31 | 48 | 2.0 | 2.0 | 0.00 | 0.00 | 0.00 | 81 | 1021.4 |
| 20260508014504 | 31 | 58 | 1.0 | 2.0 | 0.00 | 0.00 | 0.00 | 81 | 1021.3 |
| 20260508014003 | 30 | 44 | 0.0 | 2.0 | 0.00 | 0.00 | 0.00 | 85 | 1021.3 |
| 20260508013503 | 30 | 40 | 0.0 | 2.0 | 0.00 | 0.00 | 0.00 | 88 | 1021.5 |
| 20260508013214 | 30 | 39 | 0.0 | 2.0 | 0.00 | 0.00 | 0.00 | 87 | 1021.6 |
| 20260508012503 | 30 | 41 | 1.0 | 2.0 | 0.00 | 0.00 | 0.00 | 83 | 1021.4 |
| 20260508012003 | 30 | 43 | 1.0 | 2.0 | 0.00 | 0.00 | 0.00 | 81 | 1021.4 |
| 20260508011503 | 31 | 44 | 1.0 | 2.0 | 0.00 | 0.00 | 0.00 | 79 | 1021.3 |
| 20260508011003 | 31 | 40 | 0.0 | 2.0 | 0.00 | 0.00 | 0.00 | 83 | 1021.1 |
| 20260508010713 | 31 | 41 | 0.0 | 2.0 | 0.00 | 0.00 | 0.00 | 84 | 1021.3 |
| 20260508010003 | 32 | 37 | 1.0 | 3.0 | 0.00 | 0.00 | 0.00 | 79 | 1021.1 |
| 20260508005713 | 32 | 35 | 1.0 | 3.0 | 0.00 | 0.00 | 0.00 | 79 | 1020.9 |
| 20260508005003 | 32 | 38 | 2.0 | 3.0 | 0.00 | 0.00 | 0.00 | 81 | 1020.9 |
| 20260508004503 | 31 | 34 | 1.0 | 3.0 | 0.00 | 0.00 | 0.00 | 82 | 1020.9 |
| 20260508004003 | 31 | 32 | 1.0 | 3.0 | 0.00 | 0.00 | 0.00 | 80 | 1021.0 |
| 20260508003713 | 31 | 33 | 1.0 | 3.0 | 0.00 | 0.00 | 0.00 | 80 | 1020.8 |
| 20260508003214 | 32 | 43 | 1.0 | 2.0 | 0.00 | 0.00 | 0.00 | 80 | 1020.9 |
| 20260508002503 | 33 | 29 | 1.0 | 3.0 | 0.00 | 0.00 | 0.00 | 78 | 1020.8 |
| 20260508002003 | 33 | 32 | 1.0 | 3.0 | 0.00 | 0.00 | 0.00 | 78 | 1020.9 |
| 20260508001503 | 33 | 17 | 1.0 | 3.0 | 0.00 | 0.00 | 0.00 | 73 | 1020.8 |
| 20260508001003 | 33 | 115 | 0.0 | 3.0 | 0.00 | 0.00 | 0.00 | 75 | 1020.8 |
| 20260508000503 | 33 | 234 | 1.0 | 3.0 | 0.00 | 0.00 | 0.00 | 75 | 1020.8 |
| 20260508000003 | 32 | 106 | 1.0 | 3.0 | 0.00 | 0.00 | 0.00 | 77 | 1020.8 |
| 20260507235503 | 32 | 77 | 1.0 | 3.0 | 0.00 | 0.00 | 0.00 | 77 | 1020.7 |
| 20260507235003 | 33 | 55 | 1.0 | 2.0 | 0.00 | 0.00 | 0.00 | 76 | 1020.6 |
| 20260507234504 | 32 | 46 | 0.0 | 1.0 | 0.00 | 0.00 | 0.00 | 81 | 1020.5 |
| 20260507234004 | 32 | 41 | 0.0 | 2.0 | 0.00 | 0.00 | 0.00 | 81 | 1020.6 |
| 20260507233503 | 32 | 29 | 0.0 | 2.0 | 0.00 | 0.00 | 0.00 | 82 | 1020.5 |
| 20260507233003 | 32 | 51 | 1.0 | 2.0 | 0.00 | 0.00 | 0.00 | 81 | 1020.5 |
| 20260507232503 | 33 | 56 | 1.0 | 2.0 | 0.00 | 0.00 | 0.00 | 78 | 1020.4 |
| 20260507232003 | 33 | 46 | 0.0 | 2.0 | 0.00 | 0.00 | 0.00 | 78 | 1020.4 |
| 20260507231503 | 33 | 45 | 0.0 | 2.0 | 0.00 | 0.00 | 0.00 | 78 | 1020.2 |
| 20260507231003 | 33 | 45 | 1.0 | 2.0 | 0.00 | 0.00 | 0.00 | 78 | 1020.2 |
| 20260507230503 | 33 | 43 | 1.0 | 2.0 | 0.00 | 0.00 | 0.00 | 76 | 1020.5 |
| 20260507230004 | 34 | 44 | 1.0 | 2.0 | 0.00 | 0.00 | 0.00 | 72 | 1020.4 |
| 20260507225503 | 35 | 48 | 0.0 | 1.0 | 0.00 | 0.00 | 0.00 | 72 | 1020.2 |
| 20260507225003 | 35 | 333 | 0.0 | 1.0 | 0.00 | 0.00 | 0.00 | 74 | 1020.2 |
| 20260507224504 | 34 | 333 | 0.0 | 1.0 | 0.00 | 0.00 | 0.00 | 76 | 1020.4 |
| 20260507224003 | 35 | 78 | 0.0 | 2.0 | 0.00 | 0.00 | 0.00 | 74 | 1020.2 |
| 20260507223503 | 35 | 66 | 0.0 | 2.0 | 0.00 | 0.00 | 0.00 | 72 | 1020.4 |
| 20260507223003 | 34 | 38 | 0.0 | 2.0 | 0.00 | 0.00 | 0.00 | 72 | 1020.0 |
| 20260507222503 | 35 | 52 | 0.0 | 2.0 | 0.00 | 0.00 | 0.00 | 71 | 1020.0 |
| 20260507222003 | 35 | 43 | 0.0 | 2.0 | 0.00 | 0.00 | 0.00 | 71 | 1020.2 |
| 20260507221714 | 35 | 44 | 0.0 | 2.0 | 0.00 | 0.00 | 0.00 | 70 | 1020.0 |
| 20260507221003 | 35 | 63 | 0.0 | 1.0 | 0.00 | 0.00 | 0.00 | 71 | 1019.9 |
| 20260507220503 | 36 | 51 | 0.0 | 2.0 | 0.00 | 0.00 | 0.00 | 70 | 1020.0 |
| 20260507220004 | 36 | 64 | 0.0 | 2.0 | 0.00 | 0.00 | 0.00 | 68 | 1019.9 |
| 20260507215714 | 36 | 71 | 0.0 | 2.0 | 0.00 | 0.00 | 0.00 | 69 | 1019.9 |
| 20260507215003 | 36 | 55 | 0.0 | 3.0 | 0.00 | 0.00 | 0.00 | 69 | 1020.0 |
| 20260507214503 | 38 | 49 | 0.0 | 3.0 | 0.00 | 0.00 | 0.00 | 66 | 1020.0 |
| 20260507214003 | 38 | 36 | 1.0 | 3.0 | 0.00 | 0.00 | 0.00 | 68 | 1020.0 |
| 20260507213713 | 38 | 29 | 1.0 | 3.0 | 0.00 | 0.00 | 0.00 | 70 | 1020.1 |
| 20260507213003 | 37 | 22 | 2.0 | 3.0 | 0.00 | 0.00 | 0.00 | 67 | 1019.9 |
| 20260507212503 | 38 | 34 | 1.0 | 2.0 | 0.00 | 0.00 | 0.00 | 66 | 1019.8 |
| 20260507212003 | 38 | 82 | 0.0 | 2.0 | 0.00 | 0.00 | 0.00 | 64 | 1019.8 |
| 20260507211713 | 38 | 97 | 0.0 | 2.0 | 0.00 | 0.00 | 0.00 | 64 | 1019.8 |
| 20260507211003 | 38 | 85 | 0.0 | 2.0 | 0.00 | 0.00 | 0.00 | 64 | 1019.6 |
| 20260507210713 | 38 | 88 | 0.0 | 2.0 | 0.00 | 0.00 | 0.00 | 64 | 1019.6 |
| 20260507210003 | 39 | 102 | 0.0 | 2.0 | 0.00 | 0.00 | 0.00 | 64 | 1019.4 |
| 20260507205503 | 39 | 89 | 1.0 | 3.0 | 0.00 | 0.00 | 0.00 | 63 | 1019.5 |
| 20260507205003 | 39 | 60 | 1.0 | 3.0 | 0.00 | 0.00 | 0.00 | 61 | 1019.4 |
| 20260507204503 | 40 | 61 | 0.0 | 3.0 | 0.00 | 0.00 | 0.00 | 58 | 1019.4 |
| 20260507204003 | 40 | 203 | 0.0 | 2.0 | 0.00 | 0.00 | 0.00 | 58 | 1019.4 |
| 20260507203503 | 40 | 234 | 0.0 | 2.0 | 0.00 | 0.00 | 0.00 | 58 | 1019.2 |
| 20260507203003 | 40 | 231 | 1.0 | 2.0 | 0.00 | 0.00 | 0.00 | 59 | 1019.1 |
| 20260507202713 | 41 | 221 | 0.0 | 2.0 | 0.00 | 0.00 | 0.00 | 59 | 1019.1 |
| 20260507202003 | 41 | 216 | 1.0 | 3.0 | 0.00 | 0.00 | 0.00 | 57 | 1019.0 |
| 20260507201503 | 42 | 211 | 1.0 | 3.0 | 0.00 | 0.00 | 0.00 | 56 | 1019.0 |
| 20260507201003 | 43 | 197 | 1.0 | 2.0 | 0.00 | 0.00 | 0.00 | 54 | 1019.1 |
| 20260507200713 | 43 | 189 | 0.0 | 2.0 | 0.00 | 0.00 | 0.00 | 52 | 1019.0 |
| 20260507200003 | 45 | 191 | 0.0 | 1.0 | 0.00 | 0.00 | 0.00 | 48 | 1018.9 |
| 20260507195713 | 45 | 110 | 0.0 | 1.0 | 0.00 | 0.00 | 0.00 | 46 | 1018.7 |
| 20260507195003 | 46 | 51 | 0.0 | 2.0 | 0.00 | 0.00 | 0.00 | 44 | 1018.6 |
| 20260507194503 | 46 | 19 | 0.0 | 2.0 | 0.00 | 0.00 | 0.00 | 42 | 1018.5 |
| 20260507194003 | 47 | 56 | 0.0 | 2.0 | 0.00 | 0.00 | 0.00 | 42 | 1018.5 |
| 20260507193503 | 48 | 49 | 1.0 | 2.0 | 0.00 | 0.00 | 0.00 | 39 | 1018.5 |
| 20260507193003 | 49 | 30 | 1.0 | 3.0 | 0.00 | 0.00 | 0.00 | 38 | 1018.4 |
| 20260507192503 | 49 | 16 | 2.0 | 3.0 | 0.00 | 0.00 | 0.00 | 36 | 1018.3 |
| 20260507192003 | 50 | 4 | 2.0 | 4.0 | 0.00 | 0.00 | 0.00 | 35 | 1018.2 |
| 20260507191503 | 50 | 350 | 2.0 | 4.0 | 0.00 | 0.00 | 0.00 | 34 | 1018.2 |
| 20260507191003 | 51 | 355 | 3.0 | 6.0 | 0.00 | 0.00 | 0.00 | 33 | 1018.2 |
| 20260507190713 | 51 | 358 | 3.0 | 6.0 | 0.00 | 0.00 | 0.00 | 33 | 1018.2 |
| 20260507190004 | 51 | 6 | 3.0 | 6.0 | 0.00 | 0.00 | 0.00 | 33 | 1018.0 |
| 20260507185503 | 52 | 14 | 3.0 | 7.0 | 0.00 | 0.00 | 0.00 | 32 | 1018.0 |
| 20260507185003 | 52 | 21 | 4.0 | 7.0 | 0.00 | 0.00 | 0.00 | 32 | 1017.9 |
| 20260507184503 | 53 | 21 | 3.0 | 6.0 | 0.00 | 0.00 | 0.00 | 31 | 1017.9 |
| 20260507184003 | 53 | 15 | 2.0 | 6.0 | 0.00 | 0.00 | 0.00 | 31 | 1017.6 |
| 20260507183503 | 53 | 11 | 2.0 | 4.0 | 0.00 | 0.00 | 0.00 | 31 | 1017.6 |
| 20260507183003 | 54 | 13 | 3.0 | 6.0 | 0.00 | 0.00 | 0.00 | 30 | 1017.6 |
| 20260507182712 | 54 | 14 | 3.0 | 6.0 | 0.00 | 0.00 | 0.00 | 30 | 1017.5 |
| 20260507182003 | 54 | 350 | 4.0 | 6.0 | 0.00 | 0.00 | 0.00 | 29 | 1017.6 |
| 20260507181714 | 54 | 347 | 4.0 | 7.0 | 0.00 | 0.00 | 0.00 | 28 | 1017.6 |
| 20260507181213 | 55 | 352 | 4.0 | 8.0 | 0.00 | 0.00 | 0.00 | 28 | 1017.4 |
| 20260507180503 | 55 | 349 | 4.0 | 8.0 | 0.00 | 0.00 | 0.00 | 28 | 1017.6 |
| 20260507180213 | 55 | 351 | 3.0 | 7.0 | 0.00 | 0.00 | 0.00 | 28 | 1017.3 |
| 20260507175503 | 55 | 343 | 3.0 | 6.0 | 0.00 | 0.00 | 0.00 | 28 | 1017.4 |
| 20260507175003 | 55 | 317 | 3.0 | 6.0 | 0.00 | 0.00 | 0.00 | 28 | 1017.4 |
| 20260507174503 | 56 | 290 | 3.0 | 6.0 | 0.00 | 0.00 | 0.00 | 27 | 1017.3 |
| 20260507174213 | 56 | 301 | 3.0 | 6.0 | 0.00 | 0.00 | 0.00 | 27 | 1017.3 |
| 20260507173503 | 56 | 301 | 3.0 | 7.0 | 0.00 | 0.00 | 0.00 | 27 | 1017.1 |
| 20260507173003 | 56 | 300 | 4.0 | 7.0 | 0.00 | 0.00 | 0.00 | 26 | 1017.2 |
| 20260507172504 | 56 | 292 | 4.0 | 7.0 | 0.00 | 0.00 | 0.00 | 26 | 1017.1 |